Back to catalog

STARLINK-36594

AliveCommunicationsSSO
NORAD 67574·PAYLOAD·🇺🇸 United States

Launched Jan 25, 2026 from Vandenberg Space Force Base

Loading…

Next Passes (next 24 hours)

TLE

FreshSource: CelesTrak SupGP

Epoch: Sep 14, 2026, 21:04 UTC

1 67574C 26016P   26257.87826389 -.00018505  00000+0 -57451-3 0  2579
2 67574  97.2845 316.6579 0001157  95.6841 177.8707 15.33444584    19

Track STARLINK-36594 in real time with AllMySat

Download on the App Store